Temperature
0 1 1 1 1 1 1 1 1 2 2 3 3 3 3 4 4 4 4 5 5 6 7 7 8 9 10 11 11 12 13 13 13 13 13 13 13 13 12 12 12 12 12 12
0 1 1 1 2 2 2 2 1 2 2 3 3 3 3 3 4 4 4 4 5 5 6 7 7 8 9 10 11 11 12 12 12 12 12 12 12 12 12 12 12 12 12 12
-0 0 0 0 1 2 2 2 2 2 3 3 2 3 3 3 3 3 4 4 4 5 6 6 7 8 9 10 10 11 11 12 12 12 12 12 12 12 11 12 12 11 12 11
-1 -1 -1 1 1 2 2 2 2 2 2 2 2 3 3 3 3 3 4 4 4 5 5 6 7 7 8 9 9 10 10 11 11 11 11 11 11 11 11 11 11 11 11 11
-1 -1 -1 1 1 1 1 1 1 1 2 2 2 2 3 4 3 3 4 4 4 5 5 6 7 7 8 8 9 9 10 10 11 11 11 11 11 11 11 11 11 11 11 11
-2 -1 -1 1 1 2 1 1 1 1 1 1 1 1 2 3 3 3 4 4 4 5 6 6 7 7 7 8 8 9 10 10 10 11 11 11 11 11 11 11 11 11 11 11
-1 -1 -0 0 1 1 0 0 1 1 1 1 0 1 2 3 3 3 4 4 4 5 5 6 6 7 7 7 8 9 9 10 10 10 11 11 11 11 11 11 10 10 10 10
-2 -1 -1 1 0 0 0 1 2 1 1 1 1 2 2 2 2 3 3 4 4 5 5 6 6 6 7 7 8 8 9 9 9 10 10 10 10 10 10 10 10 10 10 10
-2 -0 -0 1 1 2 2 1 2 2 1 1 1 1 2 2 2 2 3 3 4 4 5 5 6 6 7 7 8 8 8 9 9 9 9 10 10 10 10 10 10 10 9 9
-3 -2 -1 0 1 1 1 1 1 1 1 1 1 1 1 1 2 2 2 3 3 4 4 5 6 6 7 7 7 8 8 8 8 9 9 9 9 10 10 10 10 9 9 9
-3 -2 -2 -0 1 1 1 1 1 1 1 0 0 0 0 1 1 1 2 2 3 3 4 5 5 6 6 7 7 7 7 8 8 8 9 9 9 9 10 10 10 10 9 9
-2 -1 -2 -2 0 0 -0 -0 -0 -0 -0 -0 -0 -0 -0 0 0 1 1 2 2 3 3 4 5 6 6 6 7 7 7 7 8 8 8 8 8 9 9 9 9 9 9 9
-1 -1 -1 -1 -1 -1 -1 -1 -1 -1 -1 -1 -1 -1 -1 -1 -0 0 1 1 2 2 3 4 4 5 6 6 6 7 7 7 7 8 8 8 8 8 8 8 8 8 8 8
-1 -2 -2 -2 -2 -2 -2 -2 -2 -2 -2 -2 -2 -1 -1 -1 -1 -0 0 1 1 2 3 3 4 4 5 6 6 6 6 7 7 7 8 8 8 8 8 7 7 7 7 8
-2 -3 -3 -3 -3 -2 -2 -2 -2 -2 -2 -2 -2 -2 -2 -2 -1 -1 0 0 1 2 2 3 3 4 4 5 6 6 6 6 7 7 7 7 8 7 7 7 7 7 7 7
-3 -3 -4 -4 -4 -3 -3 -3 -4 -3 -3 -3 -3 -3 -2 -2 -2 -1 -0 0 1 1 2 3 3 4 4 5 5 5 6 6 6 7 7 7 7 7 7 7 7 7 6 6
-5 -5 -5 -5 -4 -5 -5 -5 -5 -5 -4 -4 -4 -3 -3 -3 -2 -2 -1 -0 0 1 2 2 3 3 4 4 5 5 6 6 6 6 6 6 6 7 7 7 6 6 6 6
-5 -5 -5 -5 -6 -5 -5 -5 -5 -5 -5 -4 -4 -4 -4 -3 -3 -2 -1 -1 0 1 2 2 3 3 4 4 5 5 5 5 5 6 6 6 6 6 6 6 6 6 6 5
-5 -6 -6 -6 -6 -6 -6 -6 -5 -5 -5 -5 -5 -4 -4 -3 -3 -2 -2 -1 -0 1 2 2 2 3 3 4 4 5 5 5 5 5 5 5 5 6 6 6 6 5 5 5
-6 -6 -6 -6 -6 -6 -6 -6 -6 -6 -6 -5 -5 -5 -4 -3 -3 -3 -2 -1 -0 0 1 2 2 2 3 3 4 4 4 4 5 5 5 5 5 5 5 5 5 5 5 5
-6 -6 -6 -6 -6 -6 -6 -6 -6 -6 -6 -6 -6 -5 -5 -4 -3 -3 -2 -1 -0 0 1 1 2 2 3 3 3 3 4 4 4 4 4 5 5 5 5 5 5 5 5 5
-6 -6 -6 -7 -7 -7 -6 -6 -6 -6 -6 -6 -6 -5 -5 -4 -3 -3 -2 -2 -1 -0 0 1 2 2 2 3 3 3 3 3 4 4 4 4 4 4 4 5 5 5 4 4
-7 -7 -7 -7 -7 -7 -7 -7 -6 -6 -6 -6 -6 -5 -5 -4 -4 -3 -3 -2 -1 -1 0 1 1 2 2 2 2 3 3 3 4 4 4 4 4 4 4 4 4 4 4 4
-7 -7 -7 -7 -7 -7 -7 -7 -7 -6 -6 -6 -6 -5 -5 -5 -4 -3 -3 -2 -1 -1 -0 1 1 1 2 2 2 3 3 3 3 4 4 4 4 4 4 4 4 4 4 3
-8 -8 -8 -8 -8 -8 -8 -7 -7 -7 -7 -6 -6 -5 -5 -5 -4 -3 -3 -2 -2 -1 -0 0 1 1 1 2 2 3 3 3 3 4 4 4 4 4 4 4 3 3 3 3
-8 -8 -8 -8 -8 -8 -8 -8 -8 -7 -7 -7 -6 -5 -5 -5 -4 -4 -3 -2 -2 -1 -1 -0 1 1 2 2 2 3 3 3 3 3 3 3 3 3 3 3 3 3 3 2
-9 -9 -9 -9 -8 -8 -8 -8 -8 -8 -7 -7 -7 -6 -5 -5 -4 -4 -3 -3 -2 -1 -1 -0 0 1 1 2 2 2 2 2 2 3 3 3 3 3 2 2 2 2 2 2
Wind_Speed
13 12 9 12 14 12 13 12 11 13 14 16 13 12 11 10 10 10 9 8 7 6 6 6 5 5 4 4 5 6 9 12 13 14 13 13 14 14 14 15 16 15 14 13
11 12 13 16 16 16 16 15 15 16 17 12 11 9 10 10 10 10 9 9 8 7 6 6 6 5 5 4 5 6 8 10 10 10 12 13 14 13 13 14 14 14 15 15
9 7 8 12 13 14 11 9 10 14 14 10 10 11 11 10 9 9 9 9 9 7 7 7 7 6 6 5 4 5 6 8 9 10 11 12 13 13 14 14 13 14 14 14
6 3 10 9 5 8 10 10 9 9 9 9 11 13 11 8 8 9 9 9 9 8 7 7 7 6 5 4 4 5 6 7 9 10 11 11 12 13 13 12 13 13 13 14
4 7 10 8 4 4 7 8 8 9 11 10 10 9 9 7 8 9 9 9 8 8 7 6 7 5 4 4 4 5 6 7 9 10 12 12 12 12 10 11 12 12 13 14
5 6 7 6 4 3 3 6 6 7 9 9 6 6 9 9 9 10 8 7 7 6 6 6 6 4 4 4 5 6 7 7 8 9 11 13 13 11 9 10 11 11 11 12
10 9 8 6 4 2 3 7 6 6 8 7 6 9 11 11 10 9 8 8 7 5 5 6 5 4 4 4 5 5 5 6 7 8 10 10 10 9 10 10 10 11 11 10
6 7 9 3 3 4 6 5 5 6 6 8 9 11 11 11 11 10 9 8 6 5 6 6 5 4 5 5 4 3 5 6 7 7 8 8 10 10 11 12 11 11 10 9
8 8 5 3 6 6 4 5 6 6 8 8 10 11 11 11 11 10 9 8 6 6 6 6 5 5 5 4 2 3 5 6 7 7 8 10 11 12 11 11 10 10 10 9
6 9 8 7 7 6 6 8 9 8 9 8 10 12 12 12 11 10 9 8 6 6 6 7 6 5 5 4 3 4 6 6 7 8 9 9 9 10 10 11 10 10 10 10
8 9 8 7 7 8 9 9 9 9 9 9 10 12 11 11 11 10 9 8 6 6 7 8 6 6 4 4 4 5 6 7 7 7 9 9 8 7 9 9 11 12 10 10
10 8 7 8 7 7 9 10 10 10 11 10 10 12 12 11 10 10 10 8 7 7 7 7 6 6 5 4 4 6 7 7 6 7 8 8 8 6 6 7 11 12 12 12
10 9 9 11 10 8 9 10 11 10 12 12 11 11 12 11 10 10 10 9 8 8 8 7 6 6 5 5 5 7 8 7 6 7 8 9 9 9 8 7 10 11 13 14
8 7 9 9 9 9 10 11 11 11 11 11 11 11 11 11 11 11 11 10 9 8 7 6 6 6 5 5 5 7 7 8 7 7 8 9 9 9 9 10 8 6 8 14
7 7 9 10 11 11 10 10 11 12 12 12 10 10 11 11 12 12 11 9 8 7 7 6 6 6 4 5 6 7 7 7 6 7 8 8 9 9 9 9 9 8 8 9
8 9 9 10 11 12 11 11 12 13 12 12 11 11 11 11 12 11 11 8 8 8 7 6 6 5 4 5 6 6 6 9 8 8 9 9 9 9 10 10 10 10 10 10
7 8 9 10 12 12 12 12 12 13 13 13 13 12 11 11 11 11 10 8 8 8 7 7 6 5 4 6 6 6 7 8 10 9 9 9 9 10 10 10 10 9 8 10
7 9 10 12 13 14 14 13 13 14 14 14 13 12 11 11 12 11 10 8 7 7 6 6 5 4 4 6 6 6 7 8 8 9 9 9 9 9 10 10 11 11 9 10
8 10 11 12 12 13 13 14 14 13 13 12 12 12 12 11 11 10 9 7 7 8 6 4 6 5 5 6 7 7 8 9 8 8 9 11 10 9 10 10 10 11 11 10
9 10 10 11 11 12 13 13 12 12 12 11 11 11 11 11 9 9 7 8 7 6 5 4 4 5 5 7 8 7 8 9 10 10 9 9 10 10 9 10 11 11 10 10
11 11 11 11 12 12 12 12 12 12 11 10 10 11 11 10 8 7 6 7 6 5 5 6 4 4 5 7 8 8 8 9 10 10 10 10 10 10 10 10 10 10 10 10
10 10 11 11 12 12 11 11 11 11 10 9 10 10 9 9 8 7 6 6 5 5 4 3 4 5 7 8 7 8 9 9 9 9 9 10 10 11 11 11 11 10 10 10
10 10 11 11 12 12 12 10 10 9 9 9 9 8 8 7 6 5 6 4 3 5 4 3 6 8 10 7 7 8 9 9 9 9 9 9 10 10 11 11 10 11 11 10
10 10 11 11 10 10 11 10 9 8 8 8 7 7 6 5 4 4 4 5 4 4 3 5 8 9 9 6 7 8 9 9 9 9 9 9 9 10 10 11 11 10 10 11
10 10 10 10 9 8 9 9 8 7 6 5 6 5 4 3 3 3 3 3 3 2 2 5 8 8 6 6 7 8 8 9 9 10 10 10 10 10 10 10 11 11 10 10
9 8 8 8 8 7 7 6 6 6 6 5 5 4 3 2 2 1 0 1 3 4 4 4 5 6 6 6 7 8 8 9 10 9 10 10 11 11 10 11 12 11 10 10
8 7 7 7 6 6 6 6 6 6 5 4 4 4 3 2 2 2 3 3 4 5 5 5 5 6 6 7 8 8 8 8 9 9 10 10 10 10 11 12 10 10 10 10
Wind_Direction
254 260 257 259 262 247 230 229 239 256 261 275 289 294 299 304 307 311 314 314 306 301 295 286 283 277 260 250 230 210 200 199 202 198 193 191 187 186 184 183 184 183 181 181
264 255 255 261 260 251 247 242 244 259 267 269 278 285 293 298 303 305 306 307 301 295 296 293 281 275 270 257 237 212 202 200 196 189 187 186 184 180 179 180 179 178 181 181
266 272 272 259 246 240 235 226 229 246 258 282 291 293 290 287 293 296 298 298 295 287 282 281 279 272 259 252 241 216 204 195 188 185 183 183 178 176 179 178 176 178 180 180
266 264 248 251 233 230 238 245 238 251 269 274 278 284 279 273 278 285 290 291 291 286 282 278 275 271 262 247 226 212 202 189 184 182 181 176 174 178 179 176 177 179 179 180
240 253 267 279 261 218 225 248 245 253 272 282 291 297 282 274 274 276 277 280 281 275 274 276 273 263 253 246 222 208 200 190 185 181 178 174 175 176 175 173 174 176 176 175
230 245 257 266 273 245 192 259 266 255 271 284 308 300 289 301 298 290 281 279 281 281 282 277 271 255 232 237 221 212 203 193 185 180 178 177 176 172 168 167 170 167 169 174
234 245 262 268 277 122 184 260 285 262 266 272 262 258 281 298 298 292 286 282 282 279 278 274 271 251 231 231 230 219 194 180 175 177 176 172 167 164 160 158 160 162 163 167
213 230 251 242 149 189 238 270 278 273 272 273 275 279 288 295 296 297 294 287 280 277 279 273 262 242 232 234 238 204 174 171 171 170 167 162 159 160 159 158 160 161 159 160
208 227 249 209 218 242 248 266 275 275 280 282 285 288 292 293 294 293 289 287 281 272 279 276 258 239 234 241 217 181 167 168 168 164 164 163 161 160 160 160 162 164 163 164
249 259 261 264 269 274 272 269 276 278 283 290 286 290 292 293 293 294 290 288 287 282 281 281 275 256 239 220 200 183 170 166 164 162 161 160 162 163 164 165 164 163 165 163
250 269 287 274 263 270 278 282 287 292 288 286 288 290 288 289 290 291 292 287 281 274 273 274 274 263 242 201 183 180 169 164 165 165 160 158 159 165 166 172 171 168 170 165
248 249 248 267 273 278 282 286 289 294 296 292 286 288 291 291 290 290 290 287 280 273 272 273 269 261 236 202 185 176 169 168 167 164 156 153 147 127 112 140 148 154 159 159
250 261 260 271 279 279 279 287 290 288 286 289 289 286 287 289 290 291 291 286 274 268 268 268 264 258 231 207 192 183 177 174 169 164 159 156 151 147 135 110 114 135 148 151
256 266 274 274 278 286 284 286 288 286 283 283 286 287 287 288 290 290 288 284 277 270 267 262 259 249 228 207 194 183 174 173 170 166 160 156 152 150 148 147 143 131 136 145
263 258 265 280 287 289 289 290 292 291 292 292 290 288 289 290 290 288 287 284 277 269 265 259 252 242 222 197 187 178 171 168 164 158 153 149 146 144 143 142 142 140 134 136
283 284 281 282 286 292 295 293 290 290 292 292 293 291 289 285 285 288 288 282 273 267 264 259 250 237 215 193 178 174 170 167 163 155 150 149 149 148 147 146 146 148 150 148
284 288 290 292 292 292 290 288 286 287 290 289 289 291 291 288 287 288 289 285 273 267 260 248 245 234 210 188 177 171 163 160 157 153 153 154 153 152 150 148 151 151 151 155
265 272 278 281 286 289 290 288 286 286 286 287 289 290 289 287 286 287 288 286 279 270 258 241 232 221 202 183 174 167 161 161 160 155 151 151 150 150 148 149 151 148 144 146
290 286 287 286 285 286 286 287 286 284 284 285 286 285 283 281 281 282 284 275 266 264 260 230 223 204 187 184 174 162 158 155 152 150 147 149 147 147 149 151 150 150 149 147
304 300 297 295 291 289 289 290 289 286 283 282 282 282 282 281 281 279 277 267 260 254 243 231 211 191 182 175 169 161 157 156 154 152 150 150 150 151 151 150 149 149 148 148
311 310 308 305 301 297 294 293 290 287 287 282 278 277 278 280 279 274 272 272 267 243 232 227 207 190 180 169 164 159 156 155 155 154 153 152 152 152 152 150 148 148 147 145
312 311 311 309 306 304 301 298 292 288 287 285 281 278 276 278 279 272 260 260 268 249 234 215 194 186 178 167 158 155 153 153 153 152 153 154 155 155 153 151 150 147 145 145
311 311 311 309 307 305 304 304 301 297 291 287 285 281 274 272 271 266 272 266 256 249 236 210 188 180 172 162 155 154 154 154 153 153 154 155 153 152 150 149 147 146 145 144
311 312 311 309 308 309 310 312 309 305 300 297 291 283 276 274 273 260 258 266 256 243 220 189 179 170 164 155 151 151 152 152 149 148 147 146 144 144 144 144 143 142 142 142
311 310 311 314 316 314 311 313 316 316 314 310 306 302 292 273 265 275 268 248 215 195 161 159 154 148 143 138 144 145 145 146 145 144 144 143 141 140 140 140 140 140 142 144
312 311 308 304 305 308 312 316 319 321 321 321 325 328 323 313 297 298 298 110 120 123 121 129 134 129 124 124 126 130 131 134 134 135 136 136 135 136 136 136 134 136 139 139
313 313 314 317 319 319 320 320 321 324 327 329 333 340 351 12 38 59 79 91 96 100 101 103 106 108 112 114 114 116 118 121 123 126 128 128 128 129 131 131 132 132 134 135
Height
1407 1403 1404 1401 1398 1397 1398 1396 1395 1384 1379 1371 1369 1367 1364 1361 1359 1356 1353 1351 1350 1348 1347 1347 1346 1347 1348 1350 1353 1356 1360 1365 1369 1375 1382 1388 1394 1400 1406 1413 1419 1425 1430 1435
1402 1397 1397 1393 1388 1387 1386 1384 1383 1379 1373 1367 1366 1364 1361 1358 1356 1353 1350 1349 1347 1345 1344 1343 1342 1342 1343 1344 1347 1350 1354 1358 1363 1369 1375 1381 1387 1394 1400 1406 1412 1418 1424 1429
1400 1395 1393 1388 1378 1377 1376 1373 1374 1372 1367 1364 1363 1360 1358 1355 1352 1350 1347 1346 1343 1341 1340 1339 1339 1339 1339 1340 1342 1345 1348 1353 1358 1363 1368 1375 1381 1388 1394 1400 1406 1412 1418 1423
1399 1399 1395 1376 1369 1369 1368 1367 1367 1365 1362 1361 1359 1355 1352 1350 1348 1345 1343 1342 1339 1338 1336 1336 1335 1335 1336 1337 1338 1340 1344 1348 1353 1358 1363 1369 1376 1382 1388 1395 1400 1406 1412 1418
1397 1394 1384 1372 1367 1366 1366 1364 1362 1361 1358 1356 1354 1350 1346 1345 1343 1341 1339 1338 1336 1334 1333 1332 1331 1331 1332 1332 1333 1336 1339 1343 1348 1353 1358 1364 1369 1376 1382 1389 1395 1401 1407 1412
1393 1390 1380 1367 1362 1360 1363 1362 1357 1356 1355 1354 1352 1352 1344 1341 1339 1336 1334 1333 1331 1330 1329 1328 1327 1327 1328 1328 1330 1332 1335 1339 1343 1348 1353 1359 1364 1371 1377 1383 1390 1396 1402 1407
1387 1383 1373 1364 1360 1360 1368 1363 1354 1353 1352 1351 1350 1348 1342 1338 1335 1332 1330 1329 1327 1326 1325 1324 1323 1324 1324 1325 1326 1329 1332 1336 1340 1344 1349 1355 1360 1366 1372 1379 1385 1391 1397 1403
1382 1380 1372 1359 1360 1362 1359 1353 1352 1350 1348 1347 1344 1341 1338 1334 1331 1328 1326 1325 1324 1323 1321 1320 1320 1321 1321 1322 1323 1326 1328 1332 1336 1340 1345 1351 1356 1362 1368 1374 1380 1386 1392 1398
1372 1366 1358 1356 1355 1354 1353 1351 1349 1347 1345 1343 1340 1337 1333 1330 1327 1324 1322 1321 1319 1318 1317 1317 1317 1317 1317 1318 1320 1322 1325 1328 1332 1337 1342 1347 1352 1358 1364 1370 1376 1381 1387 1393
1366 1358 1354 1353 1351 1350 1349 1348 1345 1344 1342 1339 1336 1332 1329 1326 1323 1321 1319 1317 1315 1314 1313 1312 1312 1313 1314 1315 1317 1319 1322 1325 1329 1333 1338 1344 1349 1354 1360 1365 1371 1376 1382 1388
1359 1354 1351 1348 1347 1346 1345 1343 1341 1338 1337 1335 1332 1328 1326 1322 1319 1317 1314 1313 1311 1310 1309 1308 1308 1309 1311 1312 1314 1316 1319 1322 1326 1330 1335 1340 1346 1351 1356 1362 1367 1372 1378 1383
1353 1349 1349 1345 1343 1342 1340 1338 1336 1334 1331 1328 1327 1323 1320 1317 1315 1312 1310 1308 1307 1306 1305 1304 1304 1305 1307 1308 1310 1313 1316 1319 1323 1327 1332 1337 1342 1348 1354 1360 1366 1371 1376 1381
1344 1343 1342 1340 1338 1337 1335 1333 1331 1329 1326 1323 1320 1318 1315 1312 1309 1307 1304 1303 1302 1301 1300 1300 1300 1301 1303 1304 1307 1310 1312 1316 1319 1324 1329 1333 1339 1344 1350 1357 1363 1369 1374 1379
1340 1339 1337 1335 1334 1332 1330 1327 1325 1322 1320 1317 1315 1312 1309 1306 1303 1301 1298 1297 1296 1296 1295 1295 1296 1297 1299 1301 1303 1306 1309 1313 1316 1321 1325 1331 1336 1341 1347 1352 1358 1364 1371 1376
1335 1335 1333 1330 1328 1326 1324 1321 1318 1315 1312 1310 1308 1305 1303 1300 1297 1295 1293 1292 1291 1290 1290 1291 1291 1292 1295 1297 1300 1303 1306 1310 1314 1319 1323 1329 1334 1339 1344 1350 1356 1361 1367 1373
1330 1328 1327 1325 1322 1319 1317 1314 1312 1308 1306 1303 1301 1299 1296 1294 1291 1289 1287 1286 1286 1284 1285 1286 1286 1288 1291 1293 1296 1300 1303 1307 1311 1316 1321 1326 1331 1336 1342 1347 1353 1358 1363 1369
1326 1323 1321 1319 1316 1314 1311 1309 1306 1303 1300 1297 1295 1292 1290 1288 1285 1283 1281 1280 1280 1280 1281 1281 1282 1284 1286 1289 1292 1296 1300 1304 1309 1314 1318 1323 1329 1334 1339 1345 1350 1356 1361 1367
1322 1319 1317 1314 1311 1308 1304 1302 1299 1296 1293 1291 1288 1286 1283 1281 1278 1277 1276 1275 1275 1275 1276 1277 1279 1280 1283 1286 1289 1293 1297 1301 1305 1310 1315 1321 1326 1332 1337 1343 1348 1354 1360 1366
1316 1314 1311 1308 1305 1302 1298 1294 1291 1289 1287 1284 1282 1279 1277 1275 1274 1272 1271 1271 1270 1270 1270 1273 1275 1277 1279 1282 1286 1290 1294 1298 1302 1308 1313 1319 1324 1329 1335 1340 1346 1351 1357 1362
1311 1308 1305 1302 1299 1295 1291 1288 1285 1282 1279 1277 1275 1273 1271 1269 1268 1267 1267 1266 1265 1266 1267 1269 1271 1273 1276 1279 1283 1287 1291 1295 1300 1305 1311 1316 1322 1327 1332 1338 1343 1349 1355 1361
1305 1302 1299 1296 1292 1289 1285 1282 1278 1275 1272 1271 1269 1267 1265 1263 1263 1262 1261 1260 1260 1262 1264 1266 1268 1270 1272 1276 1280 1284 1288 1293 1298 1303 1308 1314 1319 1325 1330 1336 1341 1347 1353 1359
1301 1297 1294 1290 1286 1282 1279 1276 1272 1269 1267 1265 1263 1261 1259 1258 1257 1257 1256 1256 1257 1259 1260 1262 1264 1267 1270 1274 1278 1282 1286 1291 1296 1301 1307 1312 1317 1322 1328 1333 1339 1345 1351 1357
1297 1293 1289 1286 1282 1278 1274 1271 1267 1264 1261 1259 1257 1256 1255 1254 1253 1253 1252 1253 1254 1255 1257 1259 1261 1264 1268 1272 1276 1280 1285 1290 1295 1300 1305 1311 1316 1321 1326 1332 1338 1344 1349 1355
1293 1289 1285 1281 1278 1273 1269 1266 1263 1260 1258 1255 1253 1252 1251 1250 1249 1249 1250 1250 1251 1253 1254 1256 1259 1263 1267 1270 1275 1279 1284 1289 1294 1299 1304 1309 1315 1320 1325 1331 1336 1342 1348 1354
1289 1285 1281 1277 1274 1270 1266 1262 1259 1256 1254 1252 1250 1249 1248 1247 1246 1246 1247 1247 1249 1250 1252 1255 1258 1262 1266 1270 1274 1278 1283 1288 1293 1298 1303 1308 1314 1319 1325 1330 1336 1341 1347 1352
1286 1282 1278 1275 1272 1268 1264 1261 1258 1255 1252 1249 1247 1246 1245 1244 1244 1244 1245 1246 1247 1249 1251 1254 1258 1261 1265 1269 1273 1278 1283 1288 1293 1298 1303 1308 1314 1319 1324 1329 1335 1341 1346 1352
1282 1279 1275 1272 1269 1266 1263 1260 1256 1253 1251 1249 1246 1245 1244 1243 1243 1243 1244 1245 1247 1249 1252 1254 1258 1261 1266 1270 1274 1279 1283 1288 1293 1298 1303 1308 1314 1319 1324 1330 1335 1341 1346 1352